Regional Weather Roundup
Issued by NWS Wakefield, VA

Home | Current Version | Previous Version | Graphics & Text | Print | Product List | Glossary On
Versions: 1 2 3 4 5 6 7 8 9 10 11 12 13 14 15 16 17 18 19 20 21 22 23 24 25 26 27 28 29 30 31 32 33 34 35 36 37 38 39 40 41 42 43 44 45 46 47 48 49 50
000
ASUS41 KAKQ 191410
RWRAKQ

REGIONAL WEATHER ROUNDUP
NATIONAL WEATHER SERVICE WAKEFIELD VA
1000 AM EDT FRI SEP 19 2014

Note: "fair" indicates few or no clouds below 12,000 feet with no
significant weather and/or obstructions to visibility. * = Denotes
station may not report precipitation (e.g., rain,snow,etc.),
thunder or fog.

VAZ042-051-052>054-056-191500-
NORTHERN VIRGINIA

CITY           SKY/WX    TMP DP  RH WIND       PRES   REMARKS
WASH NATIONAL  PTSUNNY   66  53  63 NE10      30.26S
DULLES         PTSUNNY   61  52  72 VRB6      30.27R
FORT BELVOIR   PTSUNNY   63  54  73 VRB5      30.26R
QUANTICO       MOSUNNY   65  56  72 VRB6      30.26R
FREDERICKSBRG* PTSUNNY   66  61  85 NE10      30.24R
STAFFORD*      SUNNY     65  59  79 E10       30.28S
WARRENTON      MOSUNNY   64  58  81 N6        30.25R
CULPEPER*      MOSUNNY   63  54  72 N7        30.27R
MANASSAS*      MOSUNNY   63  55  77 E5        30.25S
LEESBURG*      PTSUNNY   61  54  77 NE9       30.28S
WINCHESTER     CLOUDY    61  50  67 NE7       30.27S
FRONT ROYAL*   CLOUDY    59  52  77 E6        30.26S
LURAY*         CLOUDY    61  54  77 NE7       30.25S
$$

VAZ048-049-060>072-079>083-191500-
CENTRAL AND SOUTH CENTRAL VIRGINIA...AND NORTH CENTRAL NORTH CAROLINA

CITY           SKY/WX    TMP DP  RH WIND       PRES   REMARKS
RICHMOND       CLOUDY    68  59  73 CALM      30.23R
CHESTERFIELD*  CLOUDY    63  54  72 N3        30.25R
PETERSBURG*    CLOUDY    65  59  80 N3        30.24R
HANOVER        CLOUDY    66  60  81 CALM      30.24R
TAPPAHANNOCK*  MOSUNNY   70  60  71 NE3       30.24R
CHARLOTTSVILLE CLOUDY    65  54  67 E9        30.24R
ORANGE*        CLOUDY    63  54  72 N8        30.26R
LOUISA*        CLOUDY    63  61  94 CALM      30.23R FOG
FARMVILLE*     CLOUDY    64  63  94 CALM      30.22R
CREWE*         CLOUDY    62  58  88 NW5       30.23R
FORT PICKETT*  CLOUDY    64  60  87 NE6       30.22R
LUNENBURG*     CLOUDY    63  61  94 CALM      30.22R
SOUTH HILL*    PTSUNNY   64  64 100 CALM      30.27R
LAWRENCEVILLE* CLOUDY    64  61  89 CALM      30.22R
ROANOKE RAPIDS CLOUDY    64  61  88 CALM      30.21R
RALEIGH        PTSUNNY   69  57  65 E12       30.19R
$$

VAZ088>098-191500-
SOUTHEAST VIRGINIA

CITY           SKY/WX    TMP DP  RH WIND       PRES   REMARKS
NORFOLK        PTSUNNY   73  58  59 NE8G20    30.21R
VIRGINIA BEACH MOSUNNY   74  59  59 E9        30.20R
NORFOLK NAVAL  PTSUNNY   74  58  57 E9        30.23R
WEST POINT*    CLOUDY    73  58  60 NE3       30.24R
NEWPORT NEWS   MOSUNNY   77  63  61 NE7       30.22R
LANGLEY AFB    SUNNY     74  59  61 E9        30.21R
FORT EUSTIS    MOSUNNY   74  57  55 VRB3      30.20R
WILLIAMSBURG*  PTSUNNY   73  64  73 CALM      30.23R
HR EXEC AP*    MOSUNNY   73  61  64 NE5       30.23R
FRANKLIN*      CLOUDY    70  63  78 E6        30.22R
WAKEFIELD      CLOUDY    71  61  70 NE6       30.22R
$$

VAZ020-022-025-037-045-191500-
WEST CENTRAL AND SOUTHWEST VIRGINIA

CITY           SKY/WX    TMP DP  RH WIND       PRES   REMARKS
STAUNTON*      CLOUDY    62  50  65 NE3       30.26R
HOT SPRINGS VA CLOUDY    51  40  65 E5        30.29R
LYNCHBURG      LGT RAIN  62  60  93 E3        30.24R
DANVILLE       CLOUDY    65  60  84 E6        30.21R
SOUTH BOSTON*  NOT AVBL
MARTINSVILLE   DRIZZLE   65  65 100 E6        30.23R
ROANOKE        CLOUDY    63  55  75 NE7       30.23R
BLACKSBURG     CLOUDY    64  63  94 E6        30.24R
DUBLIN*        CLOUDY    64  64  97 E3        30.23R
MARION*        CLOUDY    64  60  86 NE5       30.23S
HILLSVILLE*    CLOUDY    63  60  91 CALM      30.23R
RICHLANDS*     SUNNY     70  61  73 SE6       30.18S
WISE*          SUNNY     66  57  72 SE3       30.18S
ABINGDON*      SUNNY     69  61  75 E8        30.17S
$$

MDZ021>025-VAZ099-100-191500-
SOUTHERN MARYLAND AND THE DELMARVA PENINSULA

CITY           SKY/WX    TMP DP  RH WIND       PRES   REMARKS
PATUXENT RIVER MOSUNNY   68  58  70 N9        30.24R
BAY BRIDGE APT   N/A     63  54  72 NE7       30.26R
LEONARDTOWN    MOSUNNY   64  55  72 E8        30.25R
DOVER          SUNNY     65  58  76 NE14      30.24R
GEORGETOWN     SUNNY     69  60  73 E13       30.25R
EASTON         MOSUNNY   66  57  72 E8        30.29R
CAMBRIDGE      SUNNY     64  57  77 NE6       30.24S
SALISBURY      SUNNY     71  59  65 NE5       30.23R
OCEAN CITY     SUNNY     71  61  70 NE7       30.23R
WALLOPS ISLAND SUNNY     73  60  63 N6        30.23R
ACCOMACK*      MOSUNNY   72  54  53 E5        30.22R
$$

NCZ012>017-030>032-191500-
EASTERN NORTH CAROLINA

CITY           SKY/WX    TMP DP  RH WIND       PRES   REMARKS
ELIZABETH CITY SUNNY     73  61  65 E10       30.20R
AHOSKIE*       PTSUNNY   68  62  79 E3        30.21R
EDENTON*       SUNNY     74  62  67 NE6       30.20R
CURRITUCK*     SUNNY     74  56  53 E7        30.21R
KILL DEVIL HLS SUNNY     75  58  54 E8        30.18R
MANTEO         SUNNY     74  58  57 NE13      30.20R
CAPE HATTERAS  SUNNY     74  60  61 NE10G18   30.16R
TARBORO*       PTSUNNY   73  63  72 E6        30.20R
GOLDSBORO      PTSUNNY   70  65  83 E9        30.15S
WASHINGTON     MOSUNNY   70  62  77 NE7       30.19R
GREENVILLE     PTSUNNY   72  63  73 E10       30.19S
NEW BERN       PTSUNNY   74  61  63 NE8       30.17R
WILMINGTON     MOSUNNY   75  65  70 NE10      30.13R
$$

VAZ048-191500-
ELSEWHERE

CITY           SKY/WX    TMP DP  RH WIND       PRES   REMARKS
HARRISBURG PA  PTSUNNY   61  48  62 E6        30.30R
BALTIMORE      MOSUNNY   63  51  65 E13       30.27R
ANNAPOLIS      SUNNY     63  54  72 E9        30.26R
ANDREWS AFB    MOSUNNY   62  55  80 NE8       30.25S
WILMINGTON DE  SUNNY     64  53  67 NE16G25   30.29R
PHILADELPHIA   PTSUNNY   63  51  65 NE15      30.30R
WILDWOOD NJ*   SUNNY     70  57  64 NE15G21   30.25R
ATLANTIC CITY  CLOUDY    64  57  78 NE17G26   30.26R
HENDERSON NC   CLOUDY    66  60  80 NE3       30.21R HAZE
GREENSBORO     CLOUDY    66  62  87 NE3       30.19R
ROCKY MOUNT    CLOUDY    71  61  70 E5        30.19R
FAYETTEVILLE   CLOUDY    69  63  81 NE6       30.15R
CHARLOTTE      PTSUNNY   70  62  76 E7        30.16R
$$

VAZ100-191500-
MARINE

STATION/POSITION TIME  TEMP    WIND        PRES    WAVE   SWELL
                       AIR SEA DIR/SP/G            HT/PER HT/PER
                 (UTC) (F)     (DEG/KT/KT) (MB)    (FT/S) (FT/S)
44066 TX TWR #4  1400   66 72   50/ 21/ 27 1023.5R   6/ 6   2/10
CAPE MAY NJ      1400   68 75   60/ 11/ 16 1023.4R
LEWES DE         1400   69 72   50/  4/ 11 1023.5R
15NM E FENWICK I 1400   71 72              1023.2R   2/10
OCEAN-CITY-INLET 1400   68 72   10/  6/  8 1023.3R
WACHAPREAGUE VA  1400   72 73   50/  5/  7 1023.1R
THOMAS POINT MD  1400   62 73   40/ 12/ 13 1025.6R
GOOSES REEF MD   1400   63      50/ 12/ 14 1024.6S
COVE POINT MD    1400   63      40/ 11/ 13 1024.0R
SOLOMONS ISLAND  1400      75                N/A
BISHOPS HEAD MD  1400   67 71   40/ 10/ 13 1023.1R
PINEY POINT MD   1400           70/  7/  8   N/A
POTOMAC MD       1400   69      60/ 10/ 12 1022.6R
CAMBRIDGE MD     1400   64 74   50/  6/  8 1023.9R
LEWISETTA VA     1400   69 73   50/  7/ 10 1023.2R
RAPPAHANNOCK LGT 1400           60/  6/  6 1023.6R
STINGRAY PT      1400   71     360/  6/  8   N/A
YORK RVR RNG VA  1400   74     100/  5/  7 1022.6R
YORKTOWN VA      1400   71 76   30/  6/  7 1022.6R
JAMESTOWN VA     1400   67      40/  4/  6   N/A
DOMINION TERM VA 1400   73      20/  2/  6 1023.0R
KIPTOPEKE VA     1400      78   70/  5/  7   N/A
CHES BAY BRIDGE  1400   72 75   60/ 11/ 13 1022.5R
CAPE HENRY VA    1400   72      70/ 11/ 12 1021.8R
CHESAPEAKE LGHT  1300   71      80/ 11/ 12 1023.1R
WILLOUBY STN VA  1400   72      60/  9/ 11 1021.8R
S CRANEY ISL VA  1400           20/  9/ 11 1022.7R
CAPE HENRY BUOY  1300      75                N/A     3/ 6
1ST LANDING BUOY 1400   73      80/ 10/ 12 1022.4R
CAPE CHARLES BUO 1400      74                N/A     3/11   2/11
OFFSHORE WE BUOY 1300      74                N/A     3/ 8   3/ 8
64NM E OF VA BCH 1400   73 76   70/ 14/ 16 1022.1R   4/ 7   3/ 7
DUCK PIER NC     1400   73 74   60/ 14/ 16 1021.7R
44100 DUCK FRF   1400      74                N/A     4/11   2/11
44056 DUCK FRF   1400                        N/A     3/ 7   2/11
OREGON INLET NC  1400   74 73   50/ 12/ 15 1022.1R
HATTERAS NC      1400   75 75   60/  9/ 15 1021.7R
DIAMOND SHLS NC  1400   77      60/ 16/ 21 1020.5R   6/ 6   2/ 8
CAPE LOOKOUT NC  1300   75      30/ 18/ 21 1020.3R
$$


USA.gov is the U.S. government's official web portal to all federal, state and local government web resources and services.